Bookmark and Share
Track history (hours):
 

CSCL Long Beach

Last reported at 2014-Apr-17 20:19 UTC. Time now 2014-Apr-18 16:22 UTC.
Position N 46°00' W 007°45'.

Length 336.7 m; beam 45.6 m; draft 15 m.

Type: Ship (hazmat cat A). MMSI: 477883900.

NotesDate/timePositionNaut miles runAvg speedWind from/ knotsBaromVisibWave heightAir tempDewpointWater temp
2014-Apr-17 20:19N 46°00' W 007°45'1214.4
2014-Apr-17 19:29N 45°50' W 007°53'46812.6
2014-Apr-16 06:19N 38°09' W 009°43'1114.7
2014-Apr-16 05:33N 37°58' W 009°40'1514.6
2014-Apr-16 04:33N 37°44' W 009°35'1514.6
2014-Apr-16 03:33N 37°30' W 009°31'1914.8
2014-Apr-16 02:15N 37°11' W 009°26'1414.9
2014-Apr-16 01:20N 36°57' W 009°22'2914.2
2014-Apr-15 23:17N 36°41' W 008°52'1115.3
2014-Apr-15 22:33N 36°37' W 008°39'2015.2
2014-Apr-15 21:14N 36°31' W 008°16'12813.1
2014-Apr-15 11:30N 35°58' W 005°43'1314.3
2014-Apr-15 10:34N 35°60' W 005°26'43315.4
2014-Apr-14 06:30N 37°41' E 003°20'1717.4
2014-Apr-14 05:33N 37°42' E 003°41'21918.1
2014-Apr-13 17:26N 37°53' E 008°18'6315.7
2014-Apr-13 13:24N 37°50' E 009°37'3015.7
2014-Apr-13 11:28N 37°43' E 010°15'1515.8
2014-Apr-13 10:30N 37°38' E 010°33'1515.5
2014-Apr-13 09:32N 37°33' E 010°51'1515.7
2014-Apr-13 08:33N 37°27' E 011°09'2115.2
2014-Apr-13 07:10N 37°17' E 011°33'915.4
2014-Apr-13 06:33N 37°12' E 011°43'1515.5
2014-Apr-13 05:33N 37°05' E 011°60'2015.9
2014-Apr-13 04:18N 36°57' E 012°23'3016.0
2014-Apr-13 02:24N 36°46' E 012°58'5115.7
2014-Apr-12 23:08N 36°25' E 013°56'1315.9
2014-Apr-12 22:18N 36°20' E 014°12'  

Dump ship's entire track history

sailing weather and tide predictions

CSCL Long Beach — VRCZ7 — position and weather